Weather History for York, PA

Change the Weather History Date:

Sunday, December 9, 2012

  Actual Average Record
Temperature  
Mean Temperature 42 °F -  
Max Temperature 46 °F 0 °F 55 °F (1999)
Min Temperature 39 °F - 1 °F (2002)
Degree Days  
Heating Degree Days 22    
Moisture  
Dew Point 42 °F    
Average Humidity 93    
Maximum Humidity 100    
Minimum Humidity 81    
Precipitation  
Precipitation 0.01 in - - ()
Sea Level Pressure  
Sea Level Pressure 30.13 in    
Wind  
Wind Speed 2 mph (ENE)    
Max Wind Speed 13 mph    
Max Gust Speed -    
Visibility 3 miles    
Events Fog , Rain    
Averages and records for this station are not official NWS values.
T = Trace of Precipitation, MM = Missing Value Source: NWS Daily Summary

Daily Weather History Graph

Daily Weather History Graph

Search for Another Location

Airport:

Trip Planner

Search our weather history database for the weather conditions in past years. The results will help you decide how hot, cold, wet, or windy it might be!

Date:

Astronomy

Dec. 09, 2012 Rise Set
Actual Time 7:17 AM EST 4:42 PM EST
Civil Twilight 6:47 AM EST 5:12 PM EST
Nautical Twilight 6:13 AM EST 5:46 PM EST
Astronomical Twilight 5:40 AM EST 6:19 PM EST
Moon 2:48 AM EST (12/9) 1:47 PM EST (12/9)
Length of Visible Light 10h 25m
Length of Day
9h 24m
Waning Crescent, 19% of the Moon is Illuminated
Dec 9
Waning Crescent
Dec 13
New
Dec 20
First Quarter
Dec 28
Full
Jan 4
Last Quarter

Hourly Weather History & Observations

Time (EST) Temp. Windchill Dew Point Humidity Pressure Visibility Wind Dir Wind Speed Gust Speed Precip Events Conditions
12:10 AM 46.4 °F - 44.6 °F 93% 30.04 in 1.8 mi Calm Calm - N/A   Overcast
12:36 AM 46.4 °F - 44.6 °F 93% 30.04 in 2.0 mi Calm Calm - N/A   Overcast
12:53 AM 46.9 °F - 45.0 °F 93% 30.06 in 2.0 mi Calm Calm - N/A   Overcast
1:25 AM 46.4 °F - 44.6 °F 93% 30.04 in 1.8 mi Calm Calm - N/A   Mostly Cloudy
1:32 AM 44.6 °F - 44.6 °F 100% 30.04 in 0.8 mi Calm Calm - N/A   Mostly Cloudy
1:39 AM 42.8 °F - 42.8 °F 100% 30.04 in 0.5 mi Calm Calm - N/A Fog Fog
1:53 AM 42.1 °F - 41.0 °F 96% 30.06 in 0.2 mi Calm Calm - N/A Fog Fog
2:53 AM 39.0 °F - 37.9 °F 96% 30.08 in 0.2 mi Calm Calm - N/A Fog Fog
3:53 AM 39.0 °F - 37.9 °F 96% 30.08 in 0.2 mi Calm Calm - N/A Fog Fog
4:46 AM 39.2 °F - 39.2 °F 100% 30.09 in 1.2 mi Calm Calm - N/A   Overcast
4:53 AM 41.0 °F - 39.9 °F 96% 30.11 in 0.8 mi Calm Calm - N/A   Overcast
5:05 AM 41.0 °F - 39.2 °F 93% 30.10 in 1.2 mi Calm Calm - 0.00 in Rain Light Rain
5:22 AM 41.0 °F - 39.2 °F 93% 30.12 in 2.0 mi Calm Calm - 0.00 in   Overcast
5:33 AM 42.8 °F - 39.2 °F 87% 30.12 in 2.5 mi Calm Calm - 0.00 in   Overcast
5:48 AM 42.8 °F - 41.0 °F 93% 30.13 in 3.0 mi Calm Calm - 0.00 in Rain Light Rain
5:53 AM 42.1 °F - 41.0 °F 96% 30.15 in 2.5 mi Calm Calm - 0.00 in Rain Light Rain
6:53 AM 43.0 °F - 42.1 °F 97% 30.16 in 4.0 mi Calm Calm - 0.00 in Rain Light Rain
7:51 AM 44.6 °F - 42.8 °F 93% 30.18 in 3.0 mi Calm Calm - 0.00 in Rain Light Rain
7:53 AM 44.1 °F - 43.0 °F 96% 30.20 in 3.0 mi Calm Calm - 0.00 in Rain Light Rain
7:56 AM 44.6 °F 43.1 °F 42.8 °F 93% 30.18 in 2.5 mi NNE 3.5 mph - 0.00 in Rain Light Rain
8:07 AM 44.6 °F - 42.8 °F 93% 30.19 in 3.0 mi Calm Calm - 0.00 in Rain Light Rain
8:19 AM 44.6 °F - 42.8 °F 93% 30.19 in 2.5 mi Calm Calm - N/A Rain Rain
8:32 AM 44.6 °F - 42.8 °F 93% 30.19 in 3.0 mi Calm Calm - N/A Rain Light Rain
8:51 AM 44.6 °F 42.2 °F 42.8 °F 93% 30.19 in 4.0 mi ENE 4.6 mph - N/A Rain Light Rain
8:53 AM 46.0 °F 44.8 °F 43.0 °F 89% 30.20 in 4.0 mi ENE 3.5 mph - N/A Rain Light Rain
9:30 AM 46.4 °F 45.2 °F 42.8 °F 87% 30.20 in 3.0 mi NNE 3.5 mph - N/A Rain Light Rain
9:36 AM 46.4 °F - 42.8 °F 87% 30.21 in 3.0 mi Calm Calm - N/A Rain Light Rain
9:53 AM 46.0 °F 43.9 °F 43.0 °F 89% 30.22 in 3.0 mi ENE 4.6 mph - N/A Rain Light Rain
10:12 AM 46.4 °F 41.9 °F 42.8 °F 87% 30.21 in 4.0 mi ENE 9.2 mph - N/A Rain Light Rain
10:25 AM 46.4 °F 40.7 °F 41.0 °F 81% 30.20 in 6.0 mi East 12.7 mph - N/A Rain Light Rain
10:46 AM 44.6 °F 40.2 °F 41.0 °F 87% 30.20 in 10.0 mi East 8.1 mph - N/A Rain Light Rain
10:53 AM 45.0 °F 39.7 °F 41.0 °F 86% 30.21 in 10.0 mi East 10.4 mph - N/A   Overcast
11:42 AM 44.6 °F 40.7 °F 41.0 °F 87% 30.17 in 4.0 mi ENE 6.9 mph - N/A Rain Light Rain
11:49 AM 44.6 °F 40.7 °F 41.0 °F 87% 30.17 in 5.0 mi ENE 6.9 mph - N/A Rain Light Rain
11:53 AM 44.1 °F 40.1 °F 39.9 °F 85% 30.19 in 5.0 mi East 6.9 mph - N/A Rain Light Rain
12:26 PM 44.6 °F 42.2 °F 41.0 °F 87% 30.16 in 2.0 mi ENE 4.6 mph - N/A Rain Light Rain
12:53 PM 43.0 °F 39.5 °F 41.0 °F 93% 30.17 in 3.0 mi NE 5.8 mph - N/A Rain Light Rain
1:12 PM 44.6 °F 41.4 °F 41.0 °F 87% 30.14 in 5.0 mi ENE 5.8 mph - N/A   Overcast
1:29 PM 44.6 °F 42.2 °F 41.0 °F 87% 30.14 in 3.0 mi ENE 4.6 mph - N/A Rain Light Rain
1:37 PM 42.8 °F 38.6 °F 41.0 °F 93% 30.14 in 3.0 mi ENE 6.9 mph - N/A Rain Light Rain
1:53 PM 43.0 °F 41.3 °F 41.0 °F 93% 30.16 in 3.0 mi NE 3.5 mph - N/A   Overcast
2:17 PM 42.8 °F 40.1 °F 41.0 °F 93% 30.14 in 2.5 mi NE 4.6 mph - N/A Rain Light Rain
2:22 PM 42.8 °F - 41.0 °F 93% 30.14 in 2.0 mi Calm Calm - N/A Rain Light Rain
2:36 PM 42.8 °F 41.1 °F 41.0 °F 93% 30.14 in 2.5 mi NE 3.5 mph - N/A Rain Light Rain
2:42 PM 42.8 °F 40.1 °F 41.0 °F 93% 30.14 in 1.8 mi NNE 4.6 mph - N/A Rain Light Rain
2:53 PM 43.0 °F - 41.0 °F 93% 30.17 in 1.0 mi Calm Calm - N/A Rain Light Rain
3:07 PM 42.8 °F 39.3 °F 41.0 °F 93% 30.14 in 1.2 mi NE 5.8 mph - N/A   Overcast
3:28 PM 42.8 °F 41.1 °F 41.0 °F 93% 30.14 in 1.0 mi NE 3.5 mph - N/A Rain Light Rain
3:53 PM 43.0 °F 40.3 °F 41.0 °F 93% 30.15 in 1.2 mi NE 4.6 mph - N/A Rain Light Rain
4:11 PM 42.8 °F 40.1 °F 41.0 °F 93% 30.12 in 1.0 mi ENE 4.6 mph - N/A   Overcast
4:22 PM 42.8 °F 40.1 °F 41.0 °F 93% 30.12 in 0.8 mi ENE 4.6 mph - N/A   Overcast
4:38 PM 42.8 °F 41.1 °F 42.8 °F 100% 30.13 in 1.2 mi NE 3.5 mph - N/A   Overcast
4:53 PM 43.0 °F 40.3 °F 42.1 °F 97% 30.14 in 1.5 mi NE 4.6 mph - N/A   Overcast
5:53 PM 43.0 °F 39.5 °F 42.1 °F 97% 30.12 in 2.5 mi East 5.8 mph - 0.00 in Rain Light Rain
6:23 PM 42.8 °F 38.6 °F 42.8 °F 100% 30.10 in 3.0 mi East 6.9 mph - 0.00 in Rain Light Rain
6:53 PM 43.0 °F 39.5 °F 42.1 °F 97% 30.11 in 2.5 mi ENE 5.8 mph - 0.00 in   Overcast
7:20 PM 42.8 °F 39.3 °F 42.8 °F 100% 30.09 in 2.0 mi ENE 5.8 mph - N/A   Overcast
7:28 PM 42.8 °F 39.3 °F 42.8 °F 100% 30.12 in 1.8 mi WNW 5.8 mph - N/A   Overcast
7:53 PM 43.0 °F 40.3 °F 42.1 °F 97% 30.11 in 1.8 mi ENE 4.6 mph - 0.00 in Rain Light Rain
9:53 PM 41.0 °F 39.0 °F 39.9 °F 96% 30.04 in 1.5 mi NE 3.5 mph - 0.00 in   Overcast
10:53 PM 42.1 °F 40.2 °F 41.0 °F 96% 30.03 in 1.5 mi ENE 3.5 mph - N/A   Overcast
11:53 PM 42.1 °F 39.2 °F 41.0 °F 96% 29.99 in 1.5 mi East 4.6 mph - N/A   Overcast